Weather reports worldwide

Advertisment
Aberdeen/Dyce, United Kingdom (3091): temperature & dewpoint: 16.07.2019 01:00:00 - 22.07.2019 01:00:00 (BST)Aberdeen/Dyce, United Kingdom (3091): temperature -20cm & temperature -100cm: 16.07.2019 01:00:00 - 22.07.2019 01:00:00 (BST)Aberdeen/Dyce, United Kingdom (3091): wind speed & gusts: 16.07.2019 01:00:00 - 22.07.2019 01:00:00 (BST)Aberdeen/Dyce, United Kingdom (3091): wind direction: 16.07.2019 01:00:00 - 22.07.2019 01:00:00 (BST)Aberdeen/Dyce, United Kingdom (3091): reduced air pressure: 16.07.2019 01:00:00 - 22.07.2019 01:00:00 (BST)Aberdeen/Dyce, United Kingdom (3091): visibility: 16.07.2019 01:00:00 - 22.07.2019 01:00:00 (BST)Aberdeen/Dyce, United Kingdom (3091): sunshine duration: 16.07.2019 01:00:00 - 22.07.2019 01:00:00 (BST)Aberdeen/Dyce, United Kingdom (3091): precipitation: 16.07.2019 01:00:00 - 22.07.2019 01:00:00 (BST)
Date & Time tt [°C] td [°C] tt -20cm [°C] tt -100cm [°C] ff [km/h] ff [kn] fx [km/h] fx [kn] dd ppp [hPa] vv [km] sd [min] rr [mm]
22.07.2019 01:00:00 14,8 13,9 - - 21 11 - - SSE 1007,8 10 - 0,2
22.07.2019 00:00:00 16,2 14,0 - - 18 10 46 25 S 1008,3 50 0 0,0
21.07.2019 23:00:00 16,4 13,8 - - 26 14 - - SSW 1008,1 10 0 0,0
21.07.2019 22:00:00 15,5 13,6 - - 22 12 - - S 1008,8 35 0 0,0
21.07.2019 21:00:00 15,2 13,6 - - 18 10 - - S 1009,4 35 0 0,0
21.07.2019 20:00:00 15,2 13,4 - - 29 16 - - S 1009,8 45 0 0,4
21.07.2019 19:00:00 15,9 13,2 - - 24 13 - - S 1010,7 40 0 0,0
21.07.2019 18:00:00 17,4 12,5 - - 26 14 - - S 1011,3 10 0 0,0
21.07.2019 17:00:00 17,6 12,4 - - 24 13 - - S 1012,1 50 0 0,0
21.07.2019 16:00:00 19,2 11,8 - - 24 13 - - SSW 1012,3 10 6 0,0
21.07.2019 15:00:00 20,2 10,9 - - 28 15 - - SW 1012,2 10 48 0,0
21.07.2019 14:00:00 19,9 11,6 - - 26 14 - - S 1012,2 10 48 0,0
21.07.2019 13:00:00 19,5 11,7 - - 28 15 - - SSW 1012,3 35 42 0,0
21.07.2019 12:00:00 18,9 11,9 - - 24 13 - - SW 1012,3 50 6 0,0
21.07.2019 11:00:00 18,3 11,2 - - 13 7 - - WSW 1012,2 45 18 0,0
21.07.2019 10:00:00 17,6 11,7 15,0 13,4 21 11 - - SW 1011,9 45 36 0,0
21.07.2019 09:00:00 16,0 11,6 - - 11 6 - - SW 1011,7 45 12 0,0
21.07.2019 08:00:00 15,8 11,4 - - 15 8 - - WSW 1011,1 45 42 0,0
21.07.2019 07:00:00 13,7 9,7 - - 16 9 - - WSW 1011,0 50 0 0,0
21.07.2019 06:00:00 13,5 9,4 - - 8 4 - - NW 1010,8 10 0 0,0
21.07.2019 05:00:00 13,3 8,5 - - 4 2 - - W 1010,3 50 0 0,0
21.07.2019 04:00:00 11,1 9,3 - - 2 1 - - NNE 1010,2 50 0 0,0
21.07.2019 03:00:00 12,4 9,2 - - 5 3 - - W 1010,1 50 0 0,0
21.07.2019 02:00:00 13,8 9,9 - - 9 5 - - W 1009,6 50 0 0,0
21.07.2019 01:00:00 14,0 11,2 - - 9 5 - - W 1009,2 10 - 0,0
21.07.2019 00:00:00 15,2 12,0 - - 9 5 - - W 1008,9 45 0 0,0
20.07.2019 23:00:00 15,0 11,7 - - 9 5 - - W 1008,1 50 0 0,0
20.07.2019 22:00:00 15,3 11,5 - - 5 3 - - - 1007,2 10 0 0,0
20.07.2019 21:00:00 16,4 11,4 - - 5 3 - - NNW 1006,2 45 12 0,0
20.07.2019 20:00:00 16,5 11,7 - - 15 8 - - NW 1005,3 45 0 0,0
20.07.2019 19:00:00 16,8 11,2 - - 26 14 - - NW 1004,5 50 0 0,0
20.07.2019 18:00:00 16,7 14,0 - - 21 11 - - NW 1003,8 50 0 0,0
20.07.2019 17:00:00 17,6 15,4 - - 5 3 - - N 1002,9 50 0 0,8
20.07.2019 16:00:00 16,2 13,9 - - 18 10 - - NW 1002,5 5 0 1,0
20.07.2019 15:00:00 17,7 15,3 - - 5 3 - - NNW 1001,4 10 0 0,2
20.07.2019 14:00:00 17,0 15,0 - - 13 7 - - NNW 1000,8 35 0 0,0
20.07.2019 13:00:00 17,2 15,5 - - 15 8 - - NNW 1000,1 30 0 0,4
20.07.2019 12:00:00 16,6 14,7 - - 16 9 - - NNW 999,4 28 0 0,2
20.07.2019 11:00:00 18,1 15,1 - - 16 9 - - WNW 998,8 10 12 0,0
20.07.2019 10:00:00 17,6 15,5 15,0 13,2 16 9 - - SSW 998,5 45 6 0,0
20.07.2019 09:00:00 16,4 15,9 - - 13 7 - - SSW 998,5 10 6 2,6
20.07.2019 08:00:00 15,3 15,1 - - 8 4 - - SSE 998,3 5 0 3,0
20.07.2019 07:00:00 14,6 14,5 - - 15 8 - - SSE 998,3 4,0 0 3,2
20.07.2019 06:00:00 14,8 14,7 - - 8 4 - - ESE 998,5 3,4 0 0,0
20.07.2019 05:00:00 14,6 14,5 - - 9 5 - - SSE 998,7 0,5 0 0,0
20.07.2019 04:00:00 14,4 14,4 - - 8 4 - - SE 999,0 0,4 0 0,2
20.07.2019 03:00:00 14,2 14,1 - - 9 5 - - SE 999,7 0,3 0 0,6
20.07.2019 02:00:00 14,2 14,0 - - 15 8 - - E 1000,4 3,4 0 1,6
20.07.2019 01:00:00 14,2 14,0 - - 15 8 - - ESE 1001,3 3,6 - 0,2
20.07.2019 00:00:00 14,2 13,9 - - 13 7 - - SE 1002,2 5 0 0,4
19.07.2019 23:00:00 14,4 14,0 - - 13 7 - - SE 1002,8 8 0 0,6
19.07.2019 22:00:00 14,3 13,7 - - 13 7 - - SE 1003,4 6 0 2,0
19.07.2019 21:00:00 14,6 13,0 - - 21 11 - - S 1003,6 10 0 0,0
19.07.2019 20:00:00 15,1 13,0 - - 21 11 - - S 1003,6 10 0 0,0
19.07.2019 19:00:00 15,9 12,7 - - 18 10 - - S 1004,0 10 6 0,0
19.07.2019 18:00:00 18,7 12,9 - - 29 16 - - S 1003,9 30 18 0,0
19.07.2019 17:00:00 17,3 12,2 - - 28 15 46 25 S 1004,2 40 12 0,0
19.07.2019 16:00:00 17,7 12,5 - - 34 18 50 27 S 1004,7 50 36 0,0
19.07.2019 15:00:00 17,6 11,6 - - 29 16 - - S 1005,0 35 12 0,0
19.07.2019 14:00:00 17,7 11,7 - - 26 14 - - S 1005,0 10 48 0,0
19.07.2019 13:00:00 17,1 12,4 - - 26 14 - - SSE 1005,1 10 48 0,0
19.07.2019 12:00:00 18,4 13,1 - - 26 14 - - S 1005,0 45 42 0,0
19.07.2019 11:00:00 18,6 10,2 - - 21 11 - - S 1005,3 10 54 0,0
19.07.2019 10:00:00 17,7 11,2 14,7 13,2 18 10 - - SSW 1005,4 10 60 0,0
19.07.2019 09:00:00 16,4 10,9 - - 16 9 - - S 1005,6 10 24 0,0
19.07.2019 08:00:00 15,2 11,0 - - 18 10 - - S 1005,6 10 60 0,0
19.07.2019 07:00:00 13,6 10,5 - - 9 5 - - S 1005,5 35 60 0,0
19.07.2019 06:00:00 12,6 9,9 - - 13 7 - - SSW 1005,2 10 6 0,0
19.07.2019 05:00:00 13,1 9,6 - - 18 10 - - SW 1005,2 10 0 0,0
19.07.2019 04:00:00 12,8 9,4 - - 15 8 - - SW 1005,1 10 0 0,0
19.07.2019 03:00:00 12,4 8,9 - - 18 10 - - SW 1005,2 10 0 0,0
19.07.2019 02:00:00 12,9 9,1 - - 15 8 - - WSW 1005,0 50 0 0,0
19.07.2019 01:00:00 13,3 9,2 - - 11 6 - - SW 1004,9 10 - 0,0
19.07.2019 00:00:00 13,6 9,2 - - 8 4 - - SSW 1004,6 10 0 0,0
18.07.2019 23:00:00 14,9 9,7 - - 15 8 - - SW 1004,3 10 0 0,0
18.07.2019 22:00:00 15,1 11,1 - - 5 3 - - - 1004,0 10 0 0,0
18.07.2019 21:00:00 14,8 11,3 - - 5 3 - - - 1003,6 10 0 0,0
18.07.2019 20:00:00 16,0 12,6 - - 9 5 - - SE 1003,1 30 0 0,0
18.07.2019 19:00:00 16,5 11,5 - - 11 6 - - NNE 1002,8 50 0 0,0
18.07.2019 18:00:00 18,6 10,8 - - 21 11 - - SW 1002,0 10 18 0,0
18.07.2019 17:00:00 18,7 11,2 - - 22 12 - - SSW 1001,5 9 36 0,0
18.07.2019 16:00:00 17,9 13,5 - - 18 10 - - S 1001,8 50 18 0,0
18.07.2019 15:00:00 17,5 12,3 - - 22 12 - - S 1001,8 10 18 0,0
18.07.2019 14:00:00 17,5 11,8 - - 21 11 - - SSW 1001,8 40 42 0,0
18.07.2019 13:00:00 18,5 12,1 - - 18 10 - - S 1001,6 10 30 0,0
18.07.2019 12:00:00 18,5 12,8 - - 15 8 - - SSW 1001,9 10 36 0,0
18.07.2019 11:00:00 17,1 11,4 - - 9 5 - - SW 1002,1 10 6 0,0
18.07.2019 10:00:00 16,7 12,0 14,7 13,2 11 6 - - SW 1002,2 10 36 0,0
18.07.2019 09:00:00 15,5 11,7 - - 8 4 - - SSW 1002,3 40 60 0,0
18.07.2019 08:00:00 13,4 11,7 - - 5 3 - - SSW 1002,3 45 30 0,0
18.07.2019 07:00:00 12,4 11,2 - - 8 4 - - NW 1001,9 10 0 0,2
18.07.2019 06:00:00 12,1 11,1 - - 9 5 - - N 1001,7 19 0 0,0
18.07.2019 05:00:00 12,1 11,5 - - 16 9 - - NNW 1001,9 8 0 1,4
18.07.2019 04:00:00 14,1 13,8 - - 8 4 - - N 1002,0 5 0 1,8
18.07.2019 03:00:00 14,1 13,7 - - 5 3 - - SSE 1002,3 4,9 0 5,0
18.07.2019 02:00:00 14,2 13,7 - - 5 3 - - SSE 1002,7 4,4 0 5,2
18.07.2019 01:00:00 14,3 13,7 - - 16 9 - - S 1003,2 10 - 0,2
18.07.2019 00:00:00 14,3 13,6 - - 21 11 - - S 1003,4 6 0 0,0
17.07.2019 23:00:00 14,4 13,5 - - 18 10 - - S 1003,9 10 0 0,4
17.07.2019 22:00:00 14,6 13,3 - - 18 10 - - S 1004,4 10 0 0,2
17.07.2019 21:00:00 15,1 13,8 - - 18 10 - - SSW 1004,4 35 0 0,4
17.07.2019 20:00:00 15,4 14,2 - - 16 9 - - SSW 1004,8 10 0 1,0
17.07.2019 19:00:00 15,7 14,0 - - 22 12 - - S 1005,1 8 0 0,6
17.07.2019 18:00:00 16,5 14,3 - - 26 14 - - S 1005,7 10 0 0,0
17.07.2019 17:00:00 18,0 13,7 - - 21 11 - - S 1005,9 10 0 0,2
17.07.2019 16:00:00 17,9 13,8 - - 13 7 - - SSW 1006,5 40 0 0,0
17.07.2019 15:00:00 17,9 14,6 - - 21 11 - - SSW 1006,9 45 0 0,2
17.07.2019 14:00:00 18,0 14,7 - - 26 14 - - S 1007,4 30 0 0,0
17.07.2019 13:00:00 18,9 14,3 - - 26 14 - - S 1007,9 10 12 0,0
17.07.2019 12:00:00 19,5 15,0 - - 18 10 - - S 1008,3 10 0 0,0
17.07.2019 11:00:00 18,5 14,0 - - 22 12 - - S 1008,9 10 0 0,0
17.07.2019 10:00:00 17,6 13,7 14,7 13,0 16 9 - - S 1009,4 10 0 0,0
17.07.2019 09:00:00 16,8 13,8 - - 13 7 - - S 1009,9 10 0 0,0
17.07.2019 08:00:00 16,4 13,2 - - 8 4 - - SW 1010,4 10 0 0,0
17.07.2019 07:00:00 15,3 13,7 - - 8 4 - - SSE 1010,7 10 0 0,0
17.07.2019 06:00:00 13,0 12,7 - - 2 1 - - - 1011,1 10 0 0,0
17.07.2019 05:00:00 12,1 11,7 - - 4 2 - - - 1011,7 7 0 0,0
17.07.2019 04:00:00 11,6 11,2 - - 2 1 - - - 1012,3 0,5 0 0,0
17.07.2019 03:00:00 12,3 11,7 - - 4 2 - - NE 1012,7 7 0 0,0
17.07.2019 02:00:00 12,7 11,8 - - 4 2 - - - 1013,3 5 0 0,0
17.07.2019 01:00:00 14,1 12,9 - - 4 2 - - N 1013,6 10 - 0,0
17.07.2019 00:00:00 14,6 12,4 - - 2 1 - - ENE 1013,8 19 0 0,0
16.07.2019 23:00:00 15,6 13,3 - - 4 2 - - WNW 1014,2 23 0 0,0
16.07.2019 22:00:00 15,0 13,4 - - 4 2 - - ESE 1014,3 15 0 0,0
16.07.2019 21:00:00 16,1 13,8 - - 2 1 - - S 1014,3 21 30 0,0
16.07.2019 20:00:00 16,8 14,5 - - 9 5 - - E 1014,4 22 24 0,0
16.07.2019 19:00:00 18,1 15,7 - - 11 6 - - ENE 1014,3 10 18 0,0
16.07.2019 18:00:00 17,4 15,9 - - 9 5 - - NE 1014,6 13 0 0,0
16.07.2019 17:00:00 16,7 15,0 - - 11 6 - - ESE 1014,5 10 0 0,2
16.07.2019 16:00:00 17,9 15,7 - - 8 4 - - E 1014,7 10 0 0,4
16.07.2019 15:00:00 18,6 14,4 - - 13 7 - - E 1014,9 10 6 0,0
16.07.2019 14:00:00 19,9 14,1 - - 15 8 - - ESE 1015,1 10 48 0,0
16.07.2019 13:00:00 20,0 14,9 - - 11 6 - - ESE 1015,5 35 18 0,0
16.07.2019 12:00:00 19,3 15,0 - - 13 7 - - SE 1015,7 10 24 0,0
16.07.2019 11:00:00 19,7 14,9 - - 9 5 - - E 1015,7 35 12 0,0
16.07.2019 10:00:00 18,6 14,3 14,7 13,0 4 2 - - ESE 1016,3 30 18 -
16.07.2019 09:00:00 16,2 13,3 - - 2 1 - - ENE 1016,6 35 18 0,0
16.07.2019 08:00:00 15,0 13,2 - - 4 2 - - - 1016,8 10 36 0,0
16.07.2019 07:00:00 12,7 11,7 - - 5 3 - - NNE 1017,1 26 6 0,0
16.07.2019 06:00:00 12,2 11,3 - - 4 2 - - N 1017,1 10 0 0,0
16.07.2019 05:00:00 12,2 11,1 - - 0 0 - - N 1017,3 21 0 0,0
16.07.2019 04:00:00 12,6 11,3 - - 4 2 - - N 1017,5 10 0 0,0
16.07.2019 03:00:00 12,8 11,1 - - 2 1 - - - 1017,7 10 0 0,0
16.07.2019 02:00:00 13,3 12,1 - - 5 3 - - S 1018,1 10 0 0,0
16.07.2019 01:00:00 12,5 11,5 - - 8 4 - - SSE 1018,4 10 - 0,0

tt = temperature
td = dewpoint
tt -20cm = temperature -20cm
tt -100cm = temperature -100cm
ff = wind speed
fx = gusts
dd = wind direction
ppp = reduced air pressure
vv = visibility
sd = sunshine duration
rr = precipitation

Next stations